Location: *
(28.2408°N, 53.4600°E)
Time: 00:23:29
(UTC+00:00)

Meteor 2-5 Rocket - Pass Details

Date: 22 September 2019
Orbit: 834 x 911 km, 81.2° (Epoch: 15 October)

Event Time Altitude Azimuth Distance (km) Brightness Sun altitude
Rises 16:06:03 0° 358° (N) 3,508 7.1 -23.3°
Reaches altitude 10° 16:08:33 10° 2° (N) 2,574 6.3 -23.8°
Enters shadow 16:14:15 58° 77° (ENE) 1,045 3.8 -25.0°
